[[{"header":{"parameterUnit":"m.s-1","parameterCategory":1,"la1":30.2991,"la2":30.254,"lo1":-89.0895,"lo2":-89.0444,"dy":0.0017,"dx":0.0017,"nx":28,"ny":28,"refTime":"2024-06-27T21:00:00:Z","depth":0,"parameterNumber":2,"parameterNumberName":"U-component_of_WINDS"},"data":[0,0,0,0,0,0,0,0,0,0,0,0,0,0,0,0,0,0,0,0,0,0,0,0,0,0,0,0,0,0,0,0,0,0,0,0,0,0,0,0,0,0,0,0,0,0,0,0,0,0,0,0,0,0,0,0,0,0,3.0379,3.0381,0,3.0599,3.0601,3.0604,3.0606,3.0604,3.0601,3.0598,3.0823,3.0832,3.084,0,0,0,0,0,0,0,0,0,0,0,0,0,2.9963,2.9971,3.0378,3.0381,3.0384,3.0599,3.0602,3.0605,3.0607,3.0603,3.06,3.0597,3.0821,3.0831,3.0841,0,0,0,0,0,0,0,0,0,0,0,0,0,3.016,2.9974,3.0378,3.0411,3.0416,3.0598,3.0602,3.0605,3.0608,3.0603,3.0599,3.0595,3.0817,3.083,3.0842,3.1006,0,0,3.0882,3.0887,0,0,0,0,0,0,0,0,3.0149,3.0175,3.0403,3.0409,3.0415,3.0571,3.0538,3.074,3.0609,3.0535,3.0598,3.0593,3.0743,3.0761,3.0812,3.1016,3.1026,3.0883,3.0891,3.0896,3.09,0,0,0,0,0,0,0,3.0135,3.0165,3.0465,3.0407,3.0414,3.0416,3.0439,3.0576,3.0659,3.0541,3.0542,3.0568,3.0745,3.08,3.0817,3.1029,3.0883,3.0894,3.0902,3.0907,3.1389,3.1393,0,0,0,0,0,0,3.0114,3.0154,3.0458,3.0472,3.0269,3.0427,3.0453,3.0525,3.0658,3.0674,3.0571,3.0567,3.078,3.0802,3.0825,3.1031,3.0896,3.0908,3.0916,3.1384,3.139,3.1395,0,0,0,0,0,0,3.0106,3.0142,3.045,3.0314,3.0353,3.0439,3.052,3.0532,3.0586,3.0681,3.0696,3.0611,3.0777,3.0807,3.0963,3.1039,3.0914,3.0926,3.1378,3.1386,3.1393,3.1441,0,0,0,0,0,0,3.0094,3.0138,3.0199,3.0315,3.036,3.0582,3.0524,3.0539,3.0608,3.0605,3.0722,3.0738,3.0776,3.0944,3.0976,3.1054,3.0936,3.1371,3.1381,3.139,3.1433,3.1449,3.1463,0,0,0,0,0,3.0079,3.0202,3.0203,3.0239,3.0439,3.0586,3.0612,3.0654,3.0614,3.0678,3.0741,3.0734,3.1025,3.096,3.0996,3.1079,3.1367,3.1378,3.1389,3.1426,3.1446,3.1463,0,0,0,0,0,0,3.009,3.0217,3.0219,3.0383,3.0475,3.0586,3.0667,3.0672,3.0776,3.0768,3.0816,3.0843,3.1,3.1055,3.0979,3.1249,3.1192,3.1211,3.1207,3.1227,3.1242,3.1226,3.0947,0,0,0,0,0,3.0113,3.0222,3.0327,3.0462,3.0508,3.058,3.0646,3.0671,3.0767,3.0805,3.0878,3.0972,3.1086,3.1159,3.1268,3.1441,3.147,3.1517,3.1532,3.1544,3.1561,3.1664,3.1688,3.1433,3.1433,3.1432,0,0,3.0158,3.0242,3.0307,3.0467,3.054,3.0654,3.0612,3.0732,3.0819,3.0823,3.0977,3.1035,3.1143,3.131,3.1387,3.1361,3.1638,3.1559,3.1568,3.1578,3.1678,3.1702,3.1724,3.144,3.1439,3.1438,0,0,3.0302,3.0373,3.0497,3.0574,3.0687,3.0735,3.0766,3.0879,3.0918,3.1073,3.1082,3.1186,3.1378,3.1457,3.1523,3.1706,3.1706,3.174,3.1819,3.1919,3.1939,3.1957,3.2028,3.2052,3.1756,3.1756,3.1756,0,3.0344,3.0516,3.056,3.0684,3.0756,3.0769,3.0897,3.0968,3.1111,3.1162,3.1131,3.1379,3.1452,3.1641,3.1687,3.1738,3.1777,3.1726,3.1932,3.1951,3.1969,3.2037,3.2062,3.1759,3.1759,3.1759,3.1758,0,3.0566,3.0685,3.0772,3.0914,3.0996,3.112,3.1186,3.1265,3.1285,3.1338,3.15,3.159,3.1721,3.1767,3.1786,3.1963,3.1944,3.1922,3.1865,3.1996,3.2061,3.2087,3.1765,3.1763,3.1762,3.1761,0,0,3.0718,3.0888,3.0919,3.0987,3.1116,3.121,3.1339,3.1469,3.1538,3.1638,3.1749,3.1916,3.19,3.1975,3.2003,3.2091,3.2238,3.206,3.2063,3.2093,3.2445,3.2462,3.2491,3.2239,3.2244,3.2248,3.2438,0,3.0878,3.1106,3.1154,3.1353,3.1467,3.1485,3.1598,3.1691,3.1746,3.1853,3.1914,3.2034,3.1999,3.2046,3.2133,3.2201,3.231,3.2188,3.2347,3.2352,3.2321,3.2524,3.2541,3.2715,3.2462,3.2467,3.247,0,3.1094,3.1203,3.1414,3.1536,3.1586,3.1686,3.1814,3.1914,3.2023,3.2058,3.2146,3.2167,3.2306,3.2243,3.2437,3.2354,3.2422,3.2466,3.2474,3.2492,3.242,3.2551,3.2771,3.2798,3.2509,3.2506,3.2503,0,3.119,3.139,3.1544,3.1601,3.1745,3.1817,3.188,3.1985,3.2063,3.2174,3.2227,3.2352,3.2422,3.252,3.2577,3.2525,3.277,3.271,3.2806,3.2805,3.2856,3.2853,3.3094,3.2896,3.2896,3.2895,3.2895,0,3.1365,3.1495,3.159,3.1685,3.1833,3.1888,3.2033,3.2097,3.2191,3.2302,3.2323,3.2427,3.2494,3.2608,3.2654,3.2812,3.2842,3.2876,3.2887,3.2876,3.2872,3.2922,3.2913,3.2902,3.2901,3.2899,3.2898,0,3.1497,3.1565,3.1736,3.1861,3.1896,3.2,3.2108,3.2203,3.2261,3.2401,3.2437,3.2527,3.2664,3.2731,3.2898,3.293,3.311,3.3111,3.3074,3.3078,3.3172,3.3164,3.3456,3.3499,3.327,3.3272,3.3273,0,3.1605,3.1706,3.1844,3.1921,3.1987,3.2108,3.219,3.225,3.2334,3.2471,3.2551,3.2688,3.2801,3.3019,3.3102,3.3233,3.324,3.3334,3.3259,3.3247,3.3247,3.3241,3.3254,3.3347,3.3349,3.3351,3.3352,0,3.1792,3.1823,3.1939,3.207,3.2168,3.2273,3.2376,3.2438,3.2516,3.261,3.2751,3.2839,3.3014,3.3153,3.3291,3.3359,3.3371,3.3375,3.3405,3.3395,3.3371,3.3391,3.3113,3.3368,3.3367,3.3365,3.3364,3.3364,3.1918,3.2012,3.2126,3.2257,3.2343,3.2441,3.2539,3.2611,3.273,3.2878,3.2907,3.3058,3.3171,3.3359,3.3432,3.3553,3.3533,3.3574,3.3586,3.3596,3.3604,3.3351,3.3578,3.3578,3.3578,3.3577,3.3577,0,3.211,3.2186,3.2306,3.2454,3.2559,3.2562,3.2679,3.2767,3.2899,3.3004,3.3118,3.3284,3.342,3.3516,3.3655,3.3734,3.3744,3.377,3.3765,3.3782,3.3611,3.3573,3.376,3.376,3.376,3.376,3.376,3.376,3.2222,3.2383,3.2429,3.2635,3.271,3.2859,3.2927,3.302,3.3105,3.3289,3.3403,3.3465,3.3569,3.3718,3.3845,3.387,3.3922,3.3949,3.3974,3.3812,3.3793,3.3775,3.374,3.3958,3.3959,3.4136,3.4137,3.4138]},{"header":{"parameterUnit":"m.s-1","parameterCategory":1,"la1":30.2991,"la2":30.254,"lo1":-89.0895,"lo2":-89.0444,"dy":0.0017,"dx":0.0017,"nx":28,"ny":28,"refTime":"2024-06-27T21:00:00:Z","depth":0,"parameterNumber":3,"parameterNumberName":"V-component_of_WINDS"},"data":[0,0,0,0,0,0,0,0,0,0,0,0,0,0,0,0,0,0,0,0,0,0,0,0,0,0,0,0,0,0,0,0,0,0,0,0,0,0,0,0,0,0,0,0,0,0,0,0,0,0,0,0,0,0,0,0,0,0,-1.1819,-1.1815,0,-1.1363,-1.1358,-1.1352,-1.1211,-1.1213,-1.1216,-1.1218,-1.0735,-1.0721,-1.0706,0,0,0,0,0,0,0,0,0,0,0,0,0,-1.2553,-1.254,-1.182,-1.1814,-1.1809,-1.1364,-1.1357,-1.1351,-1.1211,-1.1213,-1.1216,-1.1219,-1.074,-1.0722,-1.0704,0,0,0,0,0,0,0,0,0,0,0,0,0,-1.2179,-1.2536,-1.1821,-1.1685,-1.1668,-1.1365,-1.1357,-1.1349,-1.121,-1.1213,-1.1217,-1.122,-1.0746,-1.0724,-1.0702,-1.0496,0,0,-1.0633,-1.0624,0,0,0,0,0,0,0,0,-1.22,-1.2152,-1.1711,-1.1694,-1.1675,-1.1348,-1.1439,-1.1063,-1.1209,-1.1384,-1.1218,-1.1222,-1.0935,-1.0897,-1.0804,-1.0473,-1.0453,-1.0631,-1.0618,-1.0608,-1.0602,0,0,0,0,0,0,0,-1.2226,-1.2171,-1.1639,-1.1704,-1.1682,-1.1641,-1.1592,-1.1367,-1.1145,-1.1369,-1.1357,-1.1306,-1.0926,-1.0826,-1.0791,-1.0445,-1.0632,-1.0612,-1.0598,-1.059,-0.9912,-0.9907,0,0,0,0,0,0,-1.2278,-1.2193,-1.1653,-1.1625,-1.1952,-1.1625,-1.157,-1.1449,-1.1148,-1.1105,-1.1304,-1.1301,-1.0862,-1.0818,-1.0774,-1.0504,-1.0608,-1.0587,-1.0574,-0.9916,-0.9911,-0.9906,0,0,0,0,0,0,-1.2294,-1.2231,-1.1671,-1.1906,-1.1832,-1.1609,-1.1474,-1.1438,-1.1338,-1.1099,-1.1057,-1.1243,-1.0863,-1.0805,-1.0565,-1.0486,-1.0577,-1.0557,-0.9922,-0.9915,-0.9908,-0.9969,0,0,0,0,0,0,-1.2316,-1.2238,-1.2161,-1.1905,-1.182,-1.1475,-1.147,-1.1427,-1.1301,-1.1294,-1.1031,-1.099,-1.0862,-1.0599,-1.0542,-1.0456,-1.0539,-0.9927,-0.9918,-0.991,-0.9973,-0.9965,-0.9959,0,0,0,0,0,-1.2342,-1.2196,-1.2158,-1.2094,-1.1721,-1.1472,-1.1422,-1.1281,-1.1296,-1.1213,-1.1059,-1.0999,-1.0506,-1.0576,-1.0511,-1.0417,-0.9932,-0.9921,-0.9911,-0.9976,-0.9967,-0.9959,0,0,0,0,0,0,-1.2444,-1.216,-1.2115,-1.1883,-1.1703,-1.1448,-1.134,-1.1277,-1.1085,-1.1085,-1.0914,-1.0856,-1.0625,-1.0498,-1.0581,-1.0196,-1.0215,-1.0192,-1.0287,-1.0276,-1.0269,-1.03,-1.0521,0,0,0,0,0,-1.2441,-1.2267,-1.2026,-1.1844,-1.1756,-1.1565,-1.1451,-1.1358,-1.1162,-1.1084,-1.0912,-1.072,-1.052,-1.0393,-1.0197,-0.9957,-0.9891,-0.9859,-0.9853,-0.9848,-0.9826,-0.9679,-0.9658,-0.9872,-0.9872,-0.9872,0,0,-1.2428,-1.2252,-1.2152,-1.1859,-1.1709,-1.1526,-1.1501,-1.1311,-1.117,-1.1053,-1.0814,-1.0682,-1.0455,-1.0212,-1.0096,-1.0098,-0.9754,-0.9835,-0.9833,-0.9813,-0.9666,-0.9646,-0.9628,-0.9865,-0.9866,-0.9868,0,0,-1.2312,-1.2166,-1.1993,-1.1843,-1.1617,-1.149,-1.145,-1.1203,-1.1111,-1.087,-1.0776,-1.0605,-1.0269,-1.0108,-0.9983,-0.9803,-0.9736,-0.9745,-0.9703,-0.9561,-0.9544,-0.9528,-0.9453,-0.943,-0.9726,-0.9726,-0.9726,0,-1.2324,-1.205,-1.1912,-1.1724,-1.1593,-1.1485,-1.1303,-1.1163,-1.0883,-1.0792,-1.0802,-1.0372,-1.0213,-0.9925,-0.9881,-0.9787,-0.9726,-0.9769,-0.956,-0.9542,-0.9525,-0.9451,-0.9425,-0.9728,-0.9727,-0.9727,-0.9727,0,-1.2071,-1.1883,-1.177,-1.1504,-1.1362,-1.118,-1.1006,-1.0878,-1.0798,-1.0668,-1.0418,-1.0224,-0.9982,-0.9909,-0.9829,-0.9607,-0.9614,-0.9595,-0.9608,-0.9508,-0.9435,-0.9407,-0.973,-0.9729,-0.9729,-0.9728,0,0,-1.2002,-1.1662,-1.1622,-1.1496,-1.1238,-1.1086,-1.0895,-1.0663,-1.0552,-1.0363,-1.0191,-0.9908,-0.9885,-0.9743,-0.9643,-0.9521,-0.9377,-0.9513,-0.9505,-0.9485,-0.9108,-0.9118,-0.9088,-0.9336,-0.933,-0.9325,-0.9123,0,-1.1844,-1.1503,-1.1371,-1.1089,-1.0907,-1.08,-1.0632,-1.0451,-1.0325,-1.0146,-1.0005,-0.9802,-0.9795,-0.9706,-0.9581,-0.9422,-0.9297,-0.9436,-0.9163,-0.9156,-0.9214,-0.9052,-0.9062,-0.8881,-0.9096,-0.9091,-0.9087,0,-1.1615,-1.1425,-1.1126,-1.0884,-1.0802,-1.0654,-1.0426,-1.0262,-1.0052,-0.9967,-0.9808,-0.9714,-0.9501,-0.9536,-0.9234,-0.9331,-0.9213,-0.9117,-0.9107,-0.9067,-0.9109,-0.8998,-0.8821,-0.879,-0.9043,-0.9047,-0.905,0,-1.1581,-1.1251,-1.1027,-1.0925,-1.064,-1.0536,-1.0411,-1.0206,-1.0072,-0.9873,-0.9782,-0.956,-0.9436,-0.9262,-0.9108,-0.9149,-0.8816,-0.8841,-0.873,-0.8734,-0.8657,-0.8662,-0.8449,-0.86,-0.86,-0.8601,-0.8601,0,-1.1413,-1.1232,-1.1007,-1.0868,-1.0659,-1.0508,-1.0302,-1.017,-0.9987,-0.9814,-0.971,-0.9548,-0.936,-0.9172,-0.9051,-0.8813,-0.876,-0.8678,-0.8646,-0.8681,-0.869,-0.8593,-0.8598,-0.8593,-0.8595,-0.8596,-0.8598,0,-1.1337,-1.1181,-1.0928,-1.0679,-1.0612,-1.0468,-1.025,-1.0107,-0.9977,-0.9759,-0.9699,-0.9491,-0.9264,-0.9096,-0.8803,-0.872,-0.8462,-0.8435,-0.8534,-0.8515,-0.841,-0.8418,-0.8118,-0.8066,-0.8264,-0.8262,-0.8261,0,-1.1236,-1.1093,-1.083,-1.0709,-1.0585,-1.0392,-1.0256,-1.01,-0.996,-0.9708,-0.9592,-0.936,-0.9164,-0.8805,-0.8623,-0.8395,-0.8354,-0.8265,-0.8319,-0.8356,-0.8338,-0.8344,-0.8324,-0.8254,-0.8253,-0.8252,-0.8251,0,-1.1068,-1.0997,-1.0808,-1.0588,-1.0429,-1.0248,-1.0065,-0.997,-0.978,-0.9628,-0.9396,-0.9245,-0.8945,-0.871,-0.8464,-0.8327,-0.8252,-0.8237,-0.8197,-0.8226,-0.8285,-0.824,-0.8501,-0.8242,-0.8243,-0.8244,-0.8244,-0.8245,-1.0967,-1.0833,-1.0625,-1.0414,-1.0261,-1.0091,-0.9941,-0.9793,-0.9599,-0.9344,-0.9264,-0.9022,-0.8807,-0.8469,-0.833,-0.8132,-0.8132,-0.8078,-0.8062,-0.8048,-0.8044,-0.8327,-0.8089,-0.8089,-0.8089,-0.8089,-0.8089,0,-1.0785,-1.0646,-1.0455,-1.0202,-1.0034,-0.9988,-0.9781,-0.964,-0.943,-0.924,-0.905,-0.8779,-0.855,-0.8351,-0.8111,-0.7991,-0.7949,-0.7932,-0.7933,-0.79,-0.8064,-0.8117,-0.7968,-0.7968,-0.7968,-0.7969,-0.7969,-0.7969,-1.067,-1.0436,-1.034,-1.0026,-0.9886,-0.9651,-0.9535,-0.9374,-0.922,-0.8924,-0.8735,-0.8609,-0.841,-0.8155,-0.794,-0.7887,-0.7797,-0.7786,-0.7722,-0.7877,-0.789,-0.7904,-0.7952,-0.7771,-0.7771,-0.7573,-0.7572,-0.757]}]]